Terminal Aerodrome Forecast
Issued by NWS Charleston, WV

Current Version | Previous Version | Text Only | Print | Product List | Glossary Off
Versions: 1 2 3 4 5 6 7 8 9 10 11 12 13 14 15 16 17 18 19 20 21 22 23 24 25 26 27 28

000
FTUS41 KRLX 191141
TAFHTS
TAF
KHTS 191141Z 1912/2012 00000KT 3SM BR SCT002
      TEMPO 1912/1913 1SM BR BKN002
     FM191300 00000KT 6SM BR SCT003
      TEMPO 1913/1914 4SM BR BKN003
     FM191400 VRB03KT P6SM BKN070
     FM200900 00000KT 4SM BR SCT070=

USA.gov is the U.S. government's official web portal to all federal, state and local government web resources and services.